Theta_e
317 318 320 320 320 339 349 349 355 350 348 352 352 357 350 349 347 345 347 345 346 345 343 345 345 345 344 342 344 346 345 344 347 346 344 345 345 345 345 345 344 346 342 346
316 319 319 320 324 327 341 345 353 350 347 347 352 351 353 349 348 346 344 344 345 344 344 345 345 346 346 345 345 347 344 342 343 344 344 344 343 345 342 345 346 340 343 347
318 320 319 323 325 328 329 330 351 355 350 347 353 357 355 349 349 350 346 344 343 344 345 345 345 346 346 346 346 347 344 342 342 344 345 344 343 345 342 344 344 346 347 346
317 316 318 320 322 326 331 348 349 354 356 358 353 362 356 353 351 350 348 345 343 343 343 344 345 345 346 346 345 346 344 342 344 344 346 345 344 346 346 345 347 345 347 347
317 315 316 318 319 331 349 346 348 347 346 350 353 353 351 350 353 351 348 346 344 343 343 343 345 345 345 345 345 344 342 343 344 344 344 346 345 347 345 345 346 346 347 346
314 315 315 316 320 341 343 344 342 341 343 348 348 351 348 354 351 349 346 347 345 342 342 343 345 346 345 345 345 345 341 343 345 346 343 343 346 346 345 345 346 346 345 346
315 315 315 322 340 341 340 341 347 344 346 348 344 348 344 345 345 347 347 349 347 343 343 343 343 344 345 345 346 346 343 343 342 346 346 345 345 345 345 345 345 345 345 345
316 316 314 328 339 344 342 336 341 351 349 344 347 351 349 343 341 341 344 347 347 346 343 343 343 345 346 346 346 346 345 345 343 345 346 346 345 345 344 344 345 345 345 345
318 321 321 327 335 339 339 337 334 335 332 333 341 347 347 350 350 349 343 348 348 348 345 344 344 345 346 346 346 346 346 345 343 345 345 347 347 347 345 346 346 346 346 347
317 320 322 322 331 325 332 328 335 337 340 335 335 351 346 350 353 348 347 349 347 346 347 345 345 346 346 346 346 346 346 346 345 345 344 345 346 347 347 347 345 346 346 346
316 318 323 322 327 328 326 324 322 331 335 328 350 346 346 349 350 351 348 346 345 344 346 346 346 346 347 347 347 347 347 346 346 346 345 344 346 347 348 348 347 346 347 348
319 315 325 325 321 323 320 318 317 327 323 322 330 326 340 346 345 345 344 344 343 342 344 345 346 346 346 347 348 348 348 347 346 346 346 345 346 349 348 347 348 347 347 348
320 321 323 328 326 326 326 326 314 311 314 319 321 321 341 341 343 343 345 345 341 343 340 341 344 345 346 347 348 349 349 348 347 347 347 347 346 348 349 348 349 348 348 348
323 321 322 326 329 327 329 335 324 317 320 318 319 342 343 338 340 339 339 340 346 344 343 340 342 343 343 345 347 349 350 349 349 348 349 348 347 348 348 349 349 348 349 348
320 322 324 325 329 334 340 341 341 337 327 327 338 346 342 336 340 341 345 348 349 346 345 342 342 342 342 342 344 348 350 351 350 350 350 349 348 350 351 352 350 350 348 349
317 322 320 327 333 332 337 339 343 345 343 344 344 344 337 336 341 341 343 344 346 346 347 344 342 341 341 342 343 345 346 348 347 348 348 347 346 347 349 351 351 351 350 349
319 318 318 323 328 332 332 334 340 342 343 341 341 337 333 341 341 342 342 341 341 341 343 343 341 341 341 341 342 342 342 342 343 344 344 344 344 343 344 345 348 350 350 348
316 318 318 321 325 334 329 327 336 344 341 336 338 342 342 343 339 337 335 337 337 336 337 340 343 341 341 341 341 341 342 342 342 341 341 341 342 342 343 343 344 344 344 344
313 317 317 321 323 329 331 328 326 333 339 341 344 343 340 341 338 338 333 332 332 331 331 332 337 338 338 339 340 340 341 341 341 340 340 340 340 340 341 341 342 343 343 341
314 312 317 315 323 333 326 326 326 327 335 334 340 342 341 338 328 338 330 328 328 327 326 328 333 336 334 336 336 336 335 337 337 337 338 338 339 338 338 337 340 340 341 340
315 315 318 321 324 325 324 326 325 333 328 332 338 339 333 330 328 329 326 325 325 324 325 327 328 328 330 332 335 332 333 332 331 332 335 337 336 336 336 336 336 336 338 334
314 316 318 317 324 323 325 326 327 320 325 327 331 333 331 332 329 326 323 324 324 323 323 326 325 325 328 329 331 329 327 328 330 331 332 333 333 334 335 335 336 336 334 330
316 312 316 316 316 314 321 324 322 320 326 330 331 331 331 330 328 325 324 323 322 322 322 323 325 325 326 328 329 327 325 327 328 329 329 331 332 332 330 330 328 327 326 323
318 313 319 319 319 324 322 322 320 321 322 322 329 330 328 328 325 322 321 321 321 320 321 322 323 323 323 324 325 325 324 325 325 324 325 327 328 328 327 327 325 324 323 323
314 313 317 317 317 321 321 320 321 320 324 327 331 330 328 324 321 318 317 317 319 318 319 321 321 320 320 320 321 322 322 321 320 319 319 320 323 324 325 323 322 322 323 323
314 314 316 315 314 319 315 316 320 321 330 331 330 328 325 323 320 318 316 316 316 316 317 317 318 318 317 318 319 319 319 318 316 314 314 316 317 316 316 320 321 320 321 322
Wind_Speed
1 5 6 5 5 4 6 5 7 7 3 3 9 6 12 6 8 6 13 13 13 14 11 15 22 24 23 23 23 22 19 14 18 17 12 12 13 10 8 5 5 3 8 6
5 5 5 5 5 5 5 5 4 3 8 5 1 7 9 10 10 11 12 14 16 9 8 14 21 22 24 24 24 24 21 19 17 18 14 13 12 11 10 7 5 5 8 5
6 3 8 6 4 4 1 4 4 5 9 6 5 5 3 5 6 2 4 9 12 16 14 11 17 22 25 25 25 27 24 21 19 14 14 14 12 10 10 10 7 5 5 6
3 2 5 5 3 5 3 8 9 11 14 3 5 3 4 7 12 6 5 11 10 12 12 13 18 20 26 29 26 25 23 21 19 16 14 15 17 15 14 13 10 7 6 6
5 3 1 3 6 4 2 11 3 4 3 2 4 1 3 12 10 16 11 14 14 16 17 16 23 26 25 27 28 25 24 23 20 19 16 13 15 14 12 14 12 10 9 6
7 3 6 6 6 7 15 8 3 4 2 1 1 4 4 9 16 17 12 13 14 15 14 15 19 20 21 23 26 26 26 25 20 17 16 15 12 12 12 12 12 11 10 10
5 5 3 5 8 5 6 6 1 4 3 4 4 3 7 11 15 24 21 15 14 13 12 12 12 18 23 26 28 29 27 25 23 18 15 17 17 14 12 12 13 14 13 13
2 1 8 6 8 10 7 8 4 4 3 3 2 4 5 7 7 11 18 14 14 15 12 13 18 21 24 26 31 31 30 28 24 22 20 17 17 15 14 13 13 15 16 15
1 4 2 5 5 9 5 4 3 6 1 1 3 6 5 3 1 6 14 19 20 17 18 18 22 24 25 27 32 35 33 31 27 24 23 21 18 17 15 13 13 13 15 14
3 2 3 3 7 6 8 8 4 4 3 4 4 4 2 5 3 4 14 15 12 12 13 16 22 27 27 32 35 35 34 33 31 27 24 24 21 17 15 15 15 15 15 14
3 3 5 4 1 8 4 1 5 5 5 4 0 4 4 6 1 7 7 6 8 11 12 13 18 22 25 26 27 35 35 34 32 29 26 25 23 19 17 17 17 16 14 15
1 4 3 2 6 2 4 6 6 5 6 2 1 3 5 5 6 3 4 4 2 6 12 12 17 21 23 28 26 30 31 35 33 30 27 24 24 20 20 19 18 17 16 16
3 3 3 5 7 4 5 2 4 3 3 6 5 3 4 6 9 9 8 6 1 5 7 7 12 17 20 23 27 31 31 34 33 29 27 24 22 21 19 19 18 17 15 15
6 3 5 6 6 1 4 5 3 2 4 5 4 3 6 8 8 8 9 7 4 4 4 8 8 14 16 17 20 26 29 32 33 29 26 23 20 20 19 17 15 14 15 15
5 4 2 4 2 3 3 4 8 1 2 3 5 5 2 4 4 5 5 7 9 6 4 5 5 5 10 13 17 16 19 23 26 26 22 20 18 18 18 18 15 12 12 12
3 2 3 6 7 9 5 9 5 4 3 6 10 4 2 1 7 11 10 10 11 9 8 8 10 11 9 7 8 14 16 17 16 16 15 10 9 10 11 13 14 13 12 13
3 4 1 3 2 6 5 7 6 2 3 2 2 3 2 8 10 8 8 8 9 9 8 6 6 9 16 17 16 12 8 10 10 10 11 15 14 9 6 8 10 10 8 7
5 5 1 3 1 2 3 2 6 6 3 5 6 4 8 7 6 7 7 6 6 7 7 6 8 8 7 10 13 17 15 10 8 7 7 12 14 15 11 6 6 6 3 2
3 4 4 4 1 1 2 2 0 3 2 3 6 7 8 7 4 6 6 6 5 5 7 10 9 8 6 3 8 15 18 17 13 10 10 12 11 11 11 7 5 4 3 3
6 6 4 3 4 4 5 3 1 3 3 2 5 6 9 2 4 2 5 5 6 7 8 8 8 10 7 5 4 9 11 15 14 13 12 10 8 9 8 4 4 3 1 3
4 4 3 2 2 5 4 3 1 4 6 2 4 5 5 3 3 3 2 4 6 8 11 11 13 13 9 6 7 12 14 15 9 11 8 10 8 6 6 6 6 6 5 4
2 3 1 2 3 4 2 1 2 5 1 1 3 3 6 9 10 6 2 1 5 7 10 10 12 14 11 10 12 14 15 9 9 11 11 10 10 6 7 5 6 7 5 5
0 5 4 6 5 3 2 1 2 2 2 3 5 5 9 11 7 8 5 3 2 4 7 8 10 12 12 10 9 11 9 8 10 12 11 11 10 8 8 7 8 10 9 10
1 3 3 3 3 3 1 3 3 1 2 3 2 6 6 7 10 8 4 4 4 5 4 6 10 11 10 9 8 9 9 8 9 11 12 11 11 12 11 11 9 10 9 9
4 6 5 3 5 4 6 6 3 2 4 2 4 4 6 10 6 6 5 5 7 5 4 4 5 9 9 8 8 8 8 9 11 12 12 12 11 10 10 10 10 8 8 6
5 7 5 6 8 6 4 4 7 4 3 4 6 5 4 7 8 8 7 8 7 8 7 7 7 7 8 8 8 7 7 7 9 10 9 9 10 11 11 12 13 9 9 7
Wind_Direction
81 90 210 179 197 154 137 121 112 110 23 53 326 322 180 153 220 212 191 185 193 202 187 183 186 194 193 195 197 195 190 184 182 179 172 169 182 196 207 175 153 142 130 121
40 208 154 166 158 152 172 161 155 105 150 156 204 282 175 174 237 212 186 193 194 178 168 170 183 192 199 199 204 202 199 187 183 183 189 193 198 205 193 181 173 140 153 138
159 215 140 145 188 187 191 264 154 159 177 230 186 287 123 228 259 192 179 195 186 182 173 175 185 190 201 205 204 205 206 195 192 193 189 189 192 194 194 194 193 183 174 170
228 283 162 150 180 173 110 356 218 155 157 232 207 198 214 207 210 218 181 197 182 180 183 174 185 192 199 206 205 208 209 197 186 185 182 191 191 204 219 209 206 206 190 194
249 306 127 166 198 134 77 69 4 82 89 107 193 106 230 169 209 206 217 205 182 184 179 184 188 198 200 202 205 209 205 197 191 191 190 184 192 205 209 210 207 213 202 212
234 220 170 213 165 144 148 95 14 28 107 329 213 180 216 192 209 198 213 203 190 182 186 187 187 191 194 204 207 210 211 205 199 197 201 200 197 191 192 200 213 222 227 223
316 227 209 158 76 40 94 86 214 338 360 236 289 170 258 207 187 190 199 185 180 180 179 170 165 177 188 197 208 210 212 211 211 204 199 194 197 203 208 215 226 234 230 230
239 179 163 187 168 177 178 140 170 142 313 308 283 237 261 190 181 197 203 176 172 171 177 176 179 182 190 193 205 210 210 212 210 213 210 206 205 205 218 230 247 241 236 239
230 278 244 189 153 133 199 131 199 102 143 3 241 277 313 69 72 227 190 176 182 182 182 183 183 186 185 195 204 210 211 211 212 216 215 213 214 216 219 230 245 254 249 242
258 305 308 54 96 52 144 138 93 8 6 278 271 268 134 336 176 120 171 188 187 192 190 186 185 186 189 198 206 212 216 214 215 218 220 219 220 225 233 237 240 249 260 248
175 122 297 41 253 155 126 191 52 108 167 214 283 292 344 267 220 141 143 168 175 188 193 194 189 191 188 197 204 209 212 217 219 222 223 224 226 228 235 239 244 245 248 247
151 140 99 170 288 243 163 158 158 128 213 231 144 308 331 5 26 26 164 204 221 197 193 192 185 186 192 197 202 210 212 217 219 222 224 227 227 229 234 243 245 246 249 244
183 48 71 12 343 353 66 13 118 116 86 176 146 268 22 9 29 23 13 359 267 206 173 167 180 187 187 194 199 207 212 220 218 218 220 226 229 231 235 237 247 245 246 247
91 46 136 159 213 213 1 3 64 24 127 160 210 119 1 357 6 352 350 329 336 127 219 190 178 186 192 197 203 204 213 221 219 217 217 219 226 231 235 239 247 249 252 249
91 38 69 117 135 107 63 12 37 5 336 123 159 111 333 317 28 25 40 37 56 68 75 132 114 123 162 169 194 205 216 221 219 216 208 211 220 228 237 241 245 249 241 252
335 142 304 40 102 43 21 33 82 40 66 83 120 100 225 326 59 48 28 31 49 60 86 105 114 119 118 131 160 200 213 226 227 206 184 186 208 218 234 238 233 237 242 252
60 102 58 336 73 70 349 359 337 39 49 32 341 102 168 87 67 48 43 41 41 26 29 54 104 129 148 155 156 150 146 174 181 184 185 198 209 244 272 263 230 214 225 229
125 135 115 153 76 169 235 338 271 104 90 60 80 121 129 114 104 76 52 59 57 51 26 29 64 95 120 151 164 154 150 146 143 158 190 214 211 203 186 172 133 144 186 230
34 121 80 117 79 276 3 283 357 39 293 118 139 139 132 141 97 55 43 61 55 41 37 42 69 92 95 130 179 169 157 152 175 172 170 194 204 191 180 186 163 156 167 273
46 56 102 91 114 190 223 172 67 141 314 183 144 141 150 157 49 282 360 14 50 58 63 66 92 121 90 102 145 141 136 153 145 166 181 203 213 214 209 212 233 170 351 291
12 1 93 84 126 288 267 337 336 100 241 135 141 135 155 139 173 133 19 14 19 32 40 58 73 76 86 122 146 104 97 84 115 129 134 118 123 130 112 141 142 144 115 114
141 126 193 71 86 274 21 19 158 215 257 178 104 94 102 131 119 124 131 14 5 25 35 53 76 73 66 80 104 96 91 95 103 106 110 106 104 99 73 71 80 73 81 112
339 176 185 170 216 264 303 278 322 226 223 168 136 143 146 135 140 154 163 157 92 44 56 74 79 75 66 67 81 97 92 105 104 105 97 105 113 109 115 121 118 117 132 138
260 148 139 68 262 245 289 289 250 224 295 357 51 129 130 141 151 152 151 162 152 127 100 107 108 97 87 93 102 113 120 120 112 105 106 107 115 116 115 118 123 133 135 135
191 134 159 269 275 294 248 209 252 284 297 225 109 145 135 136 151 154 158 167 160 145 129 129 110 106 105 109 110 120 131 135 121 112 108 105 103 104 111 107 107 117 132 140
187 173 160 217 216 166 232 189 185 198 228 167 137 126 125 137 139 148 149 163 169 156 147 143 141 133 121 125 124 122 133 134 125 115 112 111 114 112 115 117 112 96 98 124